Regional Weather Roundup
Issued by NWS Newport/Morehead, NC

Home | Current Version | Previous Version | Text Only | Print | Product List | Glossary On
Versions: 1 2 3 4 5 6 7 8 9 10 11 12 13 14 15 16 17 18 19 20 21 22 23 24 25 26 27 28 29 30 31 32 33 34 35 36 37 38 39 40 41 42 43 44 45 46 47 48 49 50
114
ASUS42 KMHX 141325
RWRMHX
WEATHER ROUNDUP FOR EASTERN NORTH CAROLINA
NATIONAL WEATHER SERVICE NEWPORT/MOREHEAD CITY NC
800 AM EST WED NOV 14 2018

NOTE: "FAIR" INDICATES FEW OR NO CLOUDS BELOW 12,000 FEET
WITH NO SIGNIFICANT WEATHER AND/OR OBSTRUCTIONS TO VISIBILITY

NCZ015>017-031-032-045>047-102-103-141400-
NORTH COAST

CITY           SKY/WX    TMP DP  RH WIND       PRES   REMARKS
EDENTON        CLOUDY    47  44  88 N6        30.38R
ELIZABETH CITY CLOUDY    49  42  77 N10       30.38R
KITTY HAWK     RAIN      50  41  72 N8G18     30.35R
MANTEO         CLOUDY    51  42  70 NE15G23   30.36R

$$

NCZ045>047-081-094-103-104-141400-
CENTRAL COAST

CITY           SKY/WX    TMP DP  RH WIND       PRES   REMARKS
FRISCO         CLOUDY    55  46  71 NE12G24   30.31R

$$

NCZ095-097-098-100-101-141400-
SOUTHERN COAST

CITY           SKY/WX    TMP DP  RH WIND       PRES   REMARKS
BEAUFORT       CLOUDY    53  46  77 N21G26    30.32R
CEDAR ISLAND   NOT AVBL
JACKSONVILLE   PTSUNNY   50  49  96 N16G23    30.33R
PINEY ISLAND     N/A    N/A N/A N/A N16G23    30.32R
WILMINGTON     CLOUDY    50  43  77 NE12      30.32R


$$

NCZ011>013-027>030-043-044-078>080-089-090>093-098-141400-
COASTAL PLAIN

CITY           SKY/WX    TMP DP  RH WIND       PRES   REMARKS
AHOSKIE        PTSUNNY   43  40  89 N5        30.40R
CLINTON        FAIR      47  44  88 NE8       30.36R
ELIZABETHTOWN  CLOUDY    48  45  87 NE7G17    30.34R
GOLDSBORO      PTSUNNY   46  41  82 NE10      30.35R
GREENVILLE     FAIR      45  43  93 N7        30.39R
HAVELOCK       LGT RAIN  50  48  93 N18G25    30.34R
KENANSVILLE    CLOUDY    46  45  93 N9        30.36R
KINSTON        LGT RAIN  46  43  87 NE8       30.37R
NEW BERN       PTSUNNY   48  44  86 N14       30.36R
RICHLANDS      CLOUDY    48  45  89 N10       30.35R
ROCKY MOUNT    PTSUNNY   45  40  82 NE5       30.40R
WASHINGTON     CLOUDY    46  42  88 N6        30.38R
WHITEVILLE     CLOUDY    50  46  86 N7        30.32R

$$

AMZ130-135-150-152-154-156-158-170-250-252-270-ANZ085-086-088-633-658-670-141400-
MARINE OBSERVATIONS

STATION/POSITION TIME  TEMP    WIND        PRES    WAVE   SWELL
                       AIR SEA DIR/SP/G            HT/PER HT/PER
                 (UTC) (F)     (DEG/KT/KT) (MB)    (FT/S) (FT/S)
CHESAPEAKE LIGHT NOT AVBL
64 E VA BEACH    1250   51 63  360/ 21/ 25 1027.7    7/ 6   2/12
DUCK             1206   52 61   20/ 18/ 22 1026.8
2 E DUCK         1200      61                N/A     5/ 6
OREGON INLET     1206   52 62   10/ 12/ 19 1026.4
13E OREGON INLT  1216      63                N/A     7/ 6   3/ 8
HATTERAS CG      1206   54 64   30/ 19/ 26 1025.1
DIAMOND BUOY     1300   59      20/ 23/ 31 1026.3
CAPE LOOKOUT     1200           20/ 22/ 26 1025.2
BEAUFORT LAB     1206   52 65   10/ 13/ 18 1026.1
30 SE NEW RVR IN 1208   59 75   60/ 21/ 31 1023.3
30 SE NEW RVR IN 1200      75                N/A     7/ 5
27 SE WRIGHTSVLE 1208   60 74   40/ 23/ 29 1023.7
5 SE WRIGHTSVLE  1208   55 67   40/ 17/ 25 1024.8
225 S CAPE HAT   1300                      1019.8
41 SE CHARLESTON 1250   69 73   30/ 19/ 25 1022.4    5/ 6   2/ 9

$$




USA.gov is the U.S. government's official web portal to all federal, state and local government web resources and services.